,,,PA_Meas_PMT16A,,PR_Meas_QMR101_102,,RH_Meas_QMH101,,SR_Meas_QMS101,,TA_Meas_QMH101,,GenWind,,GenWind,
date,time,status,PA,status,PR,status,RH,status,SR,status,TA,status,DirAvg,status,SpdAvg,
2014-03-12, 00:00:04,VALID,1011.47,VALID,0,VALID,85.3856,VALID,0,VALID,24.3158,VALID,300,VALID,0,
2014-03-12, 00:01:04,VALID,1011.45,VALID,0,VALID,85.6601,VALID,0,VALID,24.2981,VALID,300,VALID,0,
2014-03-12, 00:02:04,VALID,1011.44,VALID,0,VALID,85.9727,VALID,0,VALID,24.2591,VALID,300,VALID,0,
2014-03-12, 00:03:04,VALID,1011.41,VALID,0,VALID,86.1176,VALID,0,VALID,24.2378,VALID,300,VALID,0,
2014-03-12, 00:04:04,VALID,1011.37,VALID,0,VALID,86.3464,VALID,0,VALID,24.2202,VALID,301,VALID,0,
2014-03-12, 00:05:04,VALID,1011.36,VALID,0,VALID,86.4379,VALID,0,VALID,24.2202,VALID,300,VALID,0,
2014-03-12, 00:06:04,VALID,1011.37,VALID,0,VALID,86.5828,VALID,0,VALID,24.1812,VALID,300,VALID,0,
2014-03-12, 00:07:04,VALID,1011.34,VALID,0,VALID,86.6896,VALID,0,VALID,24.1617,VALID,300,VALID,0,
2014-03-12, 00:08:04,VALID,1011.32,VALID,0,VALID,86.6819,VALID,0,VALID,24.1617,VALID,300,VALID,0,
2014-03-12, 00:09:04,VALID,1011.32,VALID,0,VALID,86.5676,VALID,0,VALID,24.1422,VALID,300,VALID,0,
2014-03-12, 00:10:04,VALID,1011.33,VALID,0,VALID,86.3922,VALID,0,VALID,24.1617,VALID,300,VALID,0,
2014-03-12, 00:11:04,VALID,1011.27,VALID,0,VALID,86.4532,VALID,0,VALID,24.1209,VALID,300,VALID,0,
2014-03-12, 00:12:04,VALID,1011.27,VALID,0,VALID,86.5218,VALID,0,VALID,24.1617,VALID,300,VALID,0,
2014-03-12, 00:13:04,VALID,1011.29,VALID,0,VALID,86.4989,VALID,0,VALID,24.1617,VALID,300,VALID,0,
2014-03-12, 00:14:04,VALID,1011.29,VALID,0,VALID,86.4379,VALID,0,VALID,24.1812,VALID,300,VALID,0,
2014-03-12, 00:15:04,VALID,1011.28,VALID,0,VALID,86.4837,VALID,0,VALID,24.2007,VALID,300,VALID,0,
2014-03-12, 00:16:04,VALID,1011.25,VALID,0,VALID,86.5142,VALID,0.112112,VALID,24.2202,VALID,300,VALID,0,
2014-03-12, 00:17:04,VALID,1011.24,VALID,0,VALID,86.4608,VALID,0,VALID,24.2202,VALID,300,VALID,0,
2014-03-12, 00:18:04,VALID,1011.21,VALID,0,VALID,86.3769,VALID,0,VALID,24.2396,VALID,300,VALID,0,
2014-03-12, 00:19:04,VALID,1011.22,VALID,0,VALID,86.2549,VALID,0,VALID,24.2396,VALID,300,VALID,0,
2014-03-12, 00:20:04,VALID,1011.2,VALID,0,VALID,86.3464,VALID,0,VALID,24.2591,VALID,300,VALID,0,
2014-03-12, 00:21:04,VALID,1011.19,VALID,0,VALID,86.4379,VALID,0,VALID,24.2591,VALID,300,VALID,0,
2014-03-12, 00:22:04,VALID,1011.19,VALID,0,VALID,86.6514,VALID,0,VALID,24.2981,VALID,300,VALID,0,
2014-03-12, 00:23:04,VALID,1011.2,VALID,0,VALID,87.0785,VALID,0,VALID,24.3176,VALID,300,VALID,0,
2014-03-12, 00:24:04,VALID,1011.19,VALID,0,VALID,86.293,VALID,0,VALID,24.2981,VALID,300,VALID,0.420703,
2014-03-12, 00:25:04,VALID,1011.15,VALID,0,VALID,85.8126,VALID,0,VALID,24.3176,VALID,300,VALID,0.0046875,
2014-03-12, 00:26:04,VALID,1011.12,VALID,0,VALID,85.561,VALID,0,VALID,24.3761,VALID,300,VALID,0.259375,
2014-03-12, 00:27:04,VALID,1011.1,VALID,0,VALID,85.3627,VALID,0,VALID,24.3956,VALID,300,VALID,0.148828,
2014-03-12, 00:28:04,VALID,1011.08,VALID,0,VALID,85.1415,VALID,0,VALID,24.415,VALID,300,VALID,0.160547,
2014-03-12, 00:29:04,VALID,1011.07,VALID,0,VALID,85.2025,VALID,0,VALID,24.415,VALID,300,VALID,0.230469,
2014-03-12, 00:30:04,VALID,1011.02,VALID,0,VALID,85.0882,VALID,0,VALID,24.4345,VALID,300,VALID,0.192578,
2014-03-12, 00:31:04,VALID,1011,VALID,0,VALID,85.0119,VALID,0,VALID,24.415,VALID,300,VALID,0.376172,
2014-03-12, 00:32:04,VALID,1010.97,VALID,0,VALID,85.0119,VALID,0,VALID,24.3742,VALID,300,VALID,0.48125,
2014-03-12, 00:33:04,VALID,1010.97,VALID,0,VALID,84.928,VALID,0,VALID,24.4345,VALID,300,VALID,0.151562,
2014-03-12, 00:34:04,VALID,1010.93,VALID,0,VALID,84.989,VALID,0,VALID,24.454,VALID,300,VALID,0.0121094,
2014-03-12, 00:35:04,VALID,1010.95,VALID,0,VALID,84.9738,VALID,0,VALID,24.454,VALID,300,VALID,0.00195313,
2014-03-12, 00:36:04,VALID,1010.89,VALID,0,VALID,85.0882,VALID,0,VALID,24.454,VALID,300,VALID,0.170703,
2014-03-12, 00:37:04,VALID,1010.89,VALID,0,VALID,84.9509,VALID,0,VALID,24.454,VALID,300,VALID,0.291406,
2014-03-12, 00:38:04,VALID,1010.87,VALID,0,VALID,84.8365,VALID,0,VALID,24.493,VALID,300,VALID,0.0265625,
2014-03-12, 00:39:04,VALID,1010.85,VALID,0,VALID,84.8594,VALID,0,VALID,24.5125,VALID,300,VALID,0.0734375,
2014-03-12, 00:40:04,VALID,1010.8,VALID,0,VALID,84.6306,VALID,0.112112,VALID,24.5106,VALID,300,VALID,0.0046875,
2014-03-12, 00:41:04,VALID,1010.79,VALID,0,VALID,84.8289,VALID,0,VALID,24.532,VALID,300,VALID,0.0367187,
2014-03-12, 00:42:04,VALID,1010.79,VALID,0,VALID,84.5544,VALID,0,VALID,24.5515,VALID,300,VALID,0.379687,
2014-03-12, 00:43:04,VALID,1010.77,VALID,0,VALID,84.5467,VALID,0,VALID,24.5515,VALID,300,VALID,0.233203,
2014-03-12, 00:44:04,VALID,1010.74,VALID,0,VALID,84.7145,VALID,0,VALID,24.5515,VALID,300,VALID,0,
2014-03-12, 00:45:04,VALID,1010.73,VALID,0,VALID,84.2493,VALID,0,VALID,24.571,VALID,320,VALID,0.767578,
2014-03-12, 00:46:04,VALID,1010.72,VALID,0,VALID,84.1959,VALID,0,VALID,24.5905,VALID,320,VALID,0,
2014-03-12, 00:47:04,VALID,1010.76,VALID,0,VALID,83.9138,VALID,0,VALID,24.6099,VALID,320,VALID,0.492188,
2014-03-12, 00:48:04,VALID,1010.71,VALID,0,VALID,83.8223,VALID,0,VALID,24.6294,VALID,320,VALID,0.171875,
2014-03-12, 00:49:04,VALID,1010.71,VALID,0,VALID,83.9672,VALID,0,VALID,24.6489,VALID,320,VALID,0.235938,
2014-03-12, 00:50:04,VALID,1010.7,VALID,0,VALID,84.257,VALID,0,VALID,24.6471,VALID,320,VALID,0.180469,
2014-03-12, 00:51:04,VALID,1010.69,VALID,0,VALID,83.9595,VALID,0,VALID,24.6294,VALID,320,VALID,0.186328,
2014-03-12, 00:52:04,VALID,1010.67,VALID,0,VALID,83.6545,VALID,0,VALID,24.6294,VALID,320,VALID,0.402734,
2014-03-12, 00:53:04,VALID,1010.65,VALID,0,VALID,83.5935,VALID,0,VALID,24.6489,VALID,313,VALID,0.324219,
2014-03-12, 00:54:04,VALID,1010.62,VALID,0,VALID,83.441,VALID,0,VALID,24.6489,VALID,315,VALID,0.819922,
2014-03-12, 00:55:04,VALID,1010.61,VALID,0,VALID,83.4486,VALID,0,VALID,24.6489,VALID,355,VALID,0.0714844,
2014-03-12, 00:56:04,VALID,1010.6,VALID,0,VALID,83.3419,VALID,0,VALID,24.6684,VALID,355,VALID,0.525781,
2014-03-12, 00:57:04,VALID,1010.54,VALID,0,VALID,83.3647,VALID,0,VALID,24.6684,VALID,355,VALID,0.180859,
2014-03-12, 00:58:04,VALID,1010.54,VALID,0,VALID,83.441,VALID,0,VALID,24.6666,VALID,355,VALID,0.05625,
2014-03-12, 00:59:04,VALID,1010.52,VALID,0,VALID,83.3876,VALID,0,VALID,24.6879,VALID,355,VALID,0.357031,
2014-03-12, 01:00:04,VALID,1010.51,VALID,0,VALID,83.4181,VALID,0,VALID,24.6879,VALID,355,VALID,0,
2014-03-12, 01:01:04,VALID,1010.49,VALID,0,VALID,83.4105,VALID,0,VALID,24.6879,VALID,355,VALID,0.00507812,
2014-03-12, 01:02:04,VALID,1010.48,VALID,0,VALID,83.2275,VALID,0,VALID,24.6879,VALID,355,VALID,0.232031,
2014-03-12, 01:03:04,VALID,1010.47,VALID,0,VALID,83.3114,VALID,0,VALID,24.6879,VALID,355,VALID,0.310937,
2014-03-12, 01:04:04,VALID,1010.46,VALID,0,VALID,83.1817,VALID,0,VALID,24.6879,VALID,355,VALID,0.296875,
2014-03-12, 01:05:04,VALID,1010.43,VALID,0,VALID,83.136,VALID,0,VALID,24.7074,VALID,355,VALID,0.175391,
2014-03-12, 01:06:04,VALID,1010.42,VALID,0,VALID,83.0597,VALID,0,VALID,24.7074,VALID,355,VALID,0.05625,
2014-03-12, 01:07:04,VALID,1010.36,VALID,0,VALID,83.1055,VALID,0,VALID,24.7269,VALID,355,VALID,0.148438,
2014-03-12, 01:08:04,VALID,1010.37,VALID,0,VALID,82.9758,VALID,0,VALID,24.7269,VALID,355,VALID,0.462109,
2014-03-12, 01:09:04,VALID,1010.35,VALID,0,VALID,83.0673,VALID,0,VALID,24.7464,VALID,355,VALID,0.00078125,
2014-03-12, 01:10:04,VALID,1010.32,VALID,0,VALID,83.0826,VALID,0,VALID,24.725,VALID,355,VALID,0.123828,
2014-03-12, 01:11:04,VALID,1010.34,VALID,0,VALID,83.0368,VALID,0,VALID,24.7055,VALID,355,VALID,0.164453,
2014-03-12, 01:12:04,VALID,1010.32,VALID,0,VALID,83.0978,VALID,0,VALID,24.7074,VALID,355,VALID,0.0683594,
2014-03-12, 01:13:04,VALID,1010.32,VALID,0,VALID,82.9224,VALID,0,VALID,24.7093,VALID,355,VALID,0.152344,
2014-03-12, 01:14:04,VALID,1010.33,VALID,0,VALID,83.014,VALID,0,VALID,24.6684,VALID,355,VALID,0.0371094,
2014-03-12, 01:15:04,VALID,1010.33,VALID,0,VALID,83.1131,VALID,0,VALID,24.6684,VALID,355,VALID,0.338672,
2014-03-12, 01:16:04,VALID,1010.33,VALID,0,VALID,83.2122,VALID,0,VALID,24.6489,VALID,355,VALID,0.141797,
2014-03-12, 01:17:04,VALID,1010.3,VALID,0,VALID,83.4181,VALID,0,VALID,24.6099,VALID,355,VALID,0.196875,
2014-03-12, 01:18:04,VALID,1010.28,VALID,0,VALID,83.685,VALID,0,VALID,24.5886,VALID,355,VALID,0,
2014-03-12, 01:19:04,VALID,1010.26,VALID,0,VALID,83.8528,VALID,0,VALID,24.5515,VALID,355,VALID,0,
2014-03-12, 01:20:04,VALID,1010.28,VALID,0,VALID,84.0129,VALID,0,VALID,24.532,VALID,355,VALID,0,
2014-03-12, 01:21:04,VALID,1010.27,VALID,0,VALID,84.1044,VALID,0,VALID,24.493,VALID,355,VALID,0.179297,
2014-03-12, 01:22:04,VALID,1010.27,VALID,0,VALID,84.1807,VALID,0,VALID,24.454,VALID,355,VALID,0.271875,
2014-03-12, 01:23:04,VALID,1010.27,VALID,0,VALID,84.501,VALID,0,VALID,24.415,VALID,355,VALID,0.308203,
2014-03-12, 01:24:04,VALID,1010.27,VALID,0,VALID,84.684,VALID,0,VALID,24.3761,VALID,355,VALID,0.509375,
2014-03-12, 01:25:04,VALID,1010.25,VALID,0,VALID,84.7984,VALID,0,VALID,24.3371,VALID,355,VALID,0.214062,
2014-03-12, 01:26:04,VALID,1010.23,VALID,0,VALID,84.9814,VALID,0,VALID,24.3371,VALID,355,VALID,0.04375,
2014-03-12, 01:27:04,VALID,1010.23,VALID,0,VALID,85.2025,VALID,0,VALID,24.2981,VALID,355,VALID,0,
2014-03-12, 01:28:04,VALID,1010.23,VALID,0,VALID,85.4161,VALID,0,VALID,24.2786,VALID,355,VALID,0.116797,
2014-03-12, 01:29:04,VALID,1010.23,VALID,0,VALID,85.5533,VALID,0,VALID,24.1988,VALID,355,VALID,0.0648438,
2014-03-12, 01:30:04,VALID,1010.23,VALID,0,VALID,85.6601,VALID,0,VALID,24.2007,VALID,355,VALID,0,
2014-03-12, 01:31:04,VALID,1010.21,VALID,0,VALID,85.8279,VALID,0,VALID,24.1812,VALID,355,VALID,0.0320312,
2014-03-12, 01:32:04,VALID,1010.23,VALID,0,VALID,85.9651,VALID,0,VALID,24.1422,VALID,355,VALID,0.192969,
2014-03-12, 01:33:04,VALID,1010.21,VALID,0,VALID,85.9727,VALID,0,VALID,24.1227,VALID,355,VALID,0.0078125,
2014-03-12, 01:34:05,VALID,1010.22,VALID,0,VALID,86.0795,VALID,0,VALID,24.1032,VALID,355,VALID,0.0796875,
2014-03-12, 01:35:04,VALID,1010.22,VALID,0,VALID,86.1253,VALID,0,VALID,24.0837,VALID,355,VALID,0,
2014-03-12, 01:36:04,VALID,1010.21,VALID,0,VALID,86.2549,VALID,0,VALID,24.0837,VALID,355,VALID,0,
2014-03-12, 01:37:05,VALID,1010.22,VALID,0,VALID,86.4455,VALID,0,VALID,24.0643,VALID,355,VALID,0.165625,
2014-03-12, 01:38:05,VALID,1010.19,VALID,0,VALID,86.5142,VALID,0,VALID,24.0253,VALID,355,VALID,0.0824219,
2014-03-12, 01:39:05,VALID,1010.17,VALID,0,VALID,86.6438,VALID,0,VALID,23.9845,VALID,355,VALID,0.275781,
2014-03-12, 01:40:05,VALID,1010.16,VALID,0,VALID,86.7658,VALID,0,VALID,23.9863,VALID,355,VALID,0.279297,
2014-03-12, 01:41:05,VALID,1010.12,VALID,0,VALID,86.9717,VALID,0,VALID,23.9668,VALID,355,VALID,0.314453,
2014-03-12, 01:42:05,VALID,1010.12,VALID,0,VALID,87.0327,VALID,0,VALID,23.9473,VALID,355,VALID,0.261719,
2014-03-12, 01:43:05,VALID,1010.12,VALID,0,VALID,87.0861,VALID,0,VALID,23.9278,VALID,355,VALID,0,
2014-03-12, 01:44:05,VALID,1010.1,VALID,0,VALID,87.3073,VALID,0,VALID,23.8889,VALID,355,VALID,0.225391,
2014-03-12, 01:45:05,VALID,1010.09,VALID,0,VALID,87.4064,VALID,0,VALID,23.8694,VALID,355,VALID,0.0855469,
2014-03-12, 01:46:05,VALID,1010.1,VALID,0,VALID,87.4521,VALID,0,VALID,23.8499,VALID,355,VALID,0.395312,
2014-03-12, 01:47:05,VALID,1010.07,VALID,0,VALID,87.4598,VALID,0,VALID,23.8499,VALID,355,VALID,0.205078,
2014-03-12, 01:48:05,VALID,1010.1,VALID,0,VALID,87.5208,VALID,0,VALID,23.8499,VALID,355,VALID,0.0183594,
2014-03-12, 01:49:05,VALID,1010.1,VALID,0,VALID,87.6504,VALID,0,VALID,23.8304,VALID,355,VALID,0,
2014-03-12, 01:50:05,VALID,1010.11,VALID,0,VALID,87.7877,VALID,0,VALID,23.7896,VALID,355,VALID,0.560156,
2014-03-12, 01:51:05,VALID,1010.12,VALID,0,VALID,87.7495,VALID,0,VALID,23.8304,VALID,355,VALID,0.176563,
2014-03-12, 01:52:05,VALID,1010.13,VALID,0,VALID,87.6199,VALID,0,VALID,23.8499,VALID,355,VALID,0.0148437,
2014-03-12, 01:53:05,VALID,1010.15,VALID,0,VALID,87.5513,VALID,0,VALID,23.8499,VALID,355,VALID,0,
2014-03-12, 01:54:05,VALID,1010.13,VALID,0,VALID,87.3759,VALID,0,VALID,23.8481,VALID,355,VALID,0,
2014-03-12, 01:55:05,VALID,1010.15,VALID,0,VALID,87.414,VALID,0,VALID,23.8499,VALID,355,VALID,0,
2014-03-12, 01:56:05,VALID,1010.13,VALID,0,VALID,87.4369,VALID,0,VALID,23.8286,VALID,355,VALID,0,
2014-03-12, 01:57:05,VALID,1010.11,VALID,0,VALID,87.6885,VALID,0,VALID,23.8499,VALID,355,VALID,0.175391,
2014-03-12, 01:58:05,VALID,1010.09,VALID,0,VALID,87.8106,VALID,0,VALID,23.8499,VALID,355,VALID,0.00117188,
2014-03-12, 01:59:05,VALID,1010.1,VALID,0,VALID,87.9402,VALID,0,VALID,23.8499,VALID,355,VALID,0.059375,
2014-03-12, 02:00:05,VALID,1010.08,VALID,0,VALID,87.8868,VALID,0,VALID,23.8694,VALID,355,VALID,0.101953,
2014-03-12, 02:01:05,VALID,1010.05,VALID,0,VALID,87.9021,VALID,0,VALID,23.8694,VALID,355,VALID,0.0957031,
2014-03-12, 02:02:05,VALID,1010.03,VALID,0,VALID,87.7267,VALID,0,VALID,23.8694,VALID,355,VALID,0.396094,
2014-03-12, 02:03:05,VALID,1010.03,VALID,0,VALID,87.6123,VALID,0,VALID,23.8889,VALID,355,VALID,0.308594,
2014-03-12, 02:04:05,VALID,1010.01,VALID,0,VALID,87.536,VALID,0,VALID,23.9084,VALID,355,VALID,0,
2014-03-12, 02:05:05,VALID,1010.02,VALID,0,VALID,87.5513,VALID,0,VALID,23.9278,VALID,355,VALID,0.171484,
2014-03-12, 02:06:05,VALID,1010.01,VALID,0,VALID,87.4598,VALID,0,VALID,23.9473,VALID,355,VALID,0.428516,
2014-03-12, 02:07:05,VALID,1009.99,VALID,0,VALID,87.2767,VALID,0,VALID,23.9473,VALID,355,VALID,0.071875,
2014-03-12, 02:08:05,VALID,1009.97,VALID,0,VALID,87.1776,VALID,0,VALID,23.9473,VALID,355,VALID,0.224609,
2014-03-12, 02:09:05,VALID,1009.95,VALID,0,VALID,87.17,VALID,0,VALID,23.9863,VALID,355,VALID,0,
2014-03-12, 02:10:05,VALID,1009.96,VALID,0,VALID,87.2386,VALID,0,VALID,23.9863,VALID,355,VALID,0.0703125,
2014-03-12, 02:11:05,VALID,1009.92,VALID,0,VALID,87.2462,VALID,0,VALID,23.965,VALID,355,VALID,0.36875,
2014-03-12, 02:12:05,VALID,1009.89,VALID,0,VALID,87.1547,VALID,0,VALID,24.0058,VALID,355,VALID,0.421875,
2014-03-12, 02:13:05,VALID,1009.88,VALID,0,VALID,86.9717,VALID,0,VALID,24.004,VALID,355,VALID,0.696484,
2014-03-12, 02:14:05,VALID,1009.85,VALID,0,VALID,86.8726,VALID,0,VALID,24.0253,VALID,355,VALID,0.141016,
2014-03-12, 02:15:05,VALID,1009.82,VALID,0,VALID,86.8192,VALID,0,VALID,24.0235,VALID,355,VALID,0.357031,
2014-03-12, 02:16:05,VALID,1009.82,VALID,0,VALID,86.6286,VALID,0,VALID,24.0448,VALID,355,VALID,0.723437,
2014-03-12, 02:17:05,VALID,1009.84,VALID,0,VALID,86.5218,VALID,0,VALID,24.0643,VALID,314,VALID,0.424609,
2014-03-12, 02:18:05,VALID,1009.83,VALID,0,VALID,86.5828,VALID,0,VALID,24.0643,VALID,314,VALID,0,
2014-03-12, 02:19:05,VALID,1009.82,VALID,0,VALID,86.5447,VALID,0,VALID,24.0643,VALID,314,VALID,0,
2014-03-12, 02:20:05,VALID,1009.83,VALID,0,VALID,86.3083,VALID,0,VALID,24.0643,VALID,314,VALID,1.02695,
2014-03-12, 02:21:05,VALID,1009.81,VALID,0,VALID,86.3617,VALID,0,VALID,24.0837,VALID,295,VALID,0.152344,
2014-03-12, 02:22:05,VALID,1009.79,VALID,0,VALID,86.232,VALID,0,VALID,24.0837,VALID,318,VALID,0.735937,
2014-03-12, 02:23:05,VALID,1009.74,VALID,0,VALID,86.0871,VALID,0,VALID,24.1032,VALID,269,VALID,0.661328,
2014-03-12, 02:24:05,VALID,1009.73,VALID,0,VALID,86.049,VALID,0,VALID,24.1227,VALID,269,VALID,0.382422,
2014-03-12, 02:25:05,VALID,1009.72,VALID,0,VALID,85.9117,VALID,0,VALID,24.1227,VALID,269,VALID,0.0339844,
2014-03-12, 02:26:05,VALID,1009.73,VALID,0,VALID,85.8965,VALID,0,VALID,24.1422,VALID,269,VALID,0.0195313,
2014-03-12, 02:27:05,VALID,1009.75,VALID,0,VALID,85.8279,VALID,0,VALID,24.1422,VALID,269,VALID,0.44375,
2014-03-12, 02:28:05,VALID,1009.75,VALID,0,VALID,85.8431,VALID,0,VALID,24.1422,VALID,269,VALID,0.169922,
2014-03-12, 02:29:05,VALID,1009.77,VALID,0,VALID,85.7974,VALID,0,VALID,24.1617,VALID,269,VALID,0.0582031,
2014-03-12, 02:30:05,VALID,1009.75,VALID,0,VALID,85.9422,VALID,0,VALID,24.1422,VALID,269,VALID,0.118359,
2014-03-12, 02:31:05,VALID,1009.75,VALID,0,VALID,85.7897,VALID,0,VALID,24.1227,VALID,311,VALID,0.627344,
2014-03-12, 02:32:05,VALID,1009.76,VALID,0,VALID,85.6753,VALID,0,VALID,24.1422,VALID,311,VALID,0.289453,
2014-03-12, 02:33:05,VALID,1009.7,VALID,0,VALID,85.6296,VALID,0,VALID,24.1617,VALID,311,VALID,0.502344,
2014-03-12, 02:34:05,VALID,1009.7,VALID,0,VALID,85.5304,VALID,0,VALID,24.1422,VALID,311,VALID,0.608594,
2014-03-12, 02:35:05,VALID,1009.69,VALID,0,VALID,85.5762,VALID,0,VALID,24.1422,VALID,311,VALID,0.389453,
2014-03-12, 02:36:05,VALID,1009.68,VALID,0,VALID,85.5838,VALID,0,VALID,24.1422,VALID,311,VALID,0.021875,
2014-03-12, 02:37:05,VALID,1009.65,VALID,0,VALID,85.6525,VALID,0,VALID,24.1422,VALID,311,VALID,0.125391,
2014-03-12, 02:38:05,VALID,1009.65,VALID,0,VALID,85.6601,VALID,0,VALID,24.1227,VALID,311,VALID,0.000390625,
2014-03-12, 02:39:05,VALID,1009.65,VALID,0,VALID,85.7745,VALID,0,VALID,24.1227,VALID,311,VALID,0.211328,
2014-03-12, 02:40:05,VALID,1009.65,VALID,0,VALID,85.8202,VALID,0,VALID,24.1227,VALID,312,VALID,0.381641,
2014-03-12, 02:41:05,VALID,1009.65,VALID,0,VALID,85.8889,VALID,0,VALID,24.1227,VALID,328,VALID,0.240234,
2014-03-12, 02:42:05,VALID,1009.65,VALID,0,VALID,85.8126,VALID,0.112112,VALID,24.1014,VALID,328,VALID,0.189063,
2014-03-12, 02:43:05,VALID,1009.64,VALID,0,VALID,85.7897,VALID,0.112112,VALID,24.0819,VALID,327,VALID,0.0304688,
2014-03-12, 02:44:05,VALID,1009.64,VALID,0,VALID,85.805,VALID,0.112112,VALID,24.1014,VALID,327,VALID,0.206641,
2014-03-12, 02:45:05,VALID,1009.68,VALID,0,VALID,85.7974,VALID,0,VALID,24.0819,VALID,327,VALID,0.545703,
2014-03-12, 02:46:05,VALID,1009.68,VALID,0,VALID,85.744,VALID,0.112112,VALID,24.1014,VALID,327,VALID,0.135937,
2014-03-12, 02:47:05,VALID,1009.71,VALID,0,VALID,85.7211,VALID,0.112112,VALID,24.0801,VALID,327,VALID,0.09375,
2014-03-12, 02:48:05,VALID,1009.71,VALID,0,VALID,85.7211,VALID,0.112112,VALID,24.1209,VALID,327,VALID,0.115625,
2014-03-12, 02:49:05,VALID,1009.72,VALID,0,VALID,85.7363,VALID,0.112112,VALID,24.1209,VALID,327,VALID,0.0179687,
2014-03-12, 02:50:05,VALID,1009.74,VALID,0,VALID,85.6525,VALID,0.112112,VALID,24.1209,VALID,327,VALID,0,
2014-03-12, 02:51:05,VALID,1009.73,VALID,0,VALID,85.7211,VALID,0.112112,VALID,24.1404,VALID,327,VALID,0.0597656,
2014-03-12, 02:52:05,VALID,1009.76,VALID,0,VALID,85.5304,VALID,0.112112,VALID,24.1404,VALID,327,VALID,0.339453,
2014-03-12, 02:53:05,VALID,1009.77,VALID,0,VALID,85.6143,VALID,0.112112,VALID,24.1404,VALID,327,VALID,0.535937,
2014-03-12, 02:54:05,VALID,1009.78,VALID,0,VALID,85.6067,VALID,0.112112,VALID,24.1404,VALID,327,VALID,0.193359,
2014-03-12, 02:55:05,VALID,1009.74,VALID,0,VALID,85.561,VALID,0,VALID,24.1404,VALID,327,VALID,0.435937,
2014-03-12, 02:56:05,VALID,1009.74,VALID,0,VALID,85.5762,VALID,0.112112,VALID,24.1209,VALID,327,VALID,0.354297,
2014-03-12, 02:57:05,VALID,1009.71,VALID,0,VALID,85.683,VALID,0.112112,VALID,24.1209,VALID,327,VALID,0.116016,
2014-03-12, 02:58:05,VALID,1009.71,VALID,0,VALID,85.7211,VALID,0.112112,VALID,24.1404,VALID,327,VALID,0.692969,
2014-03-12, 02:59:05,VALID,1009.71,VALID,0,VALID,85.8279,VALID,0.112112,VALID,24.1404,VALID,327,VALID,0.167187,
2014-03-12, 03:00:05,VALID,1009.72,VALID,0,VALID,85.6753,VALID,0.112112,VALID,24.1599,VALID,327,VALID,0,
2014-03-12, 03:01:05,VALID,1009.72,VALID,0,VALID,85.6601,VALID,0.112112,VALID,24.1599,VALID,327,VALID,0,
2014-03-12, 03:02:05,VALID,1009.72,VALID,0,VALID,85.5076,VALID,0.112112,VALID,24.1775,VALID,326,VALID,0.548437,
2014-03-12, 03:03:05,VALID,1009.73,VALID,0,VALID,85.4771,VALID,0.112112,VALID,24.1988,VALID,327,VALID,0.119531,
2014-03-12, 03:04:05,VALID,1009.74,VALID,0,VALID,85.3169,VALID,0.112112,VALID,24.2183,VALID,327,VALID,0.246875,
2014-03-12, 03:05:05,VALID,1009.74,VALID,0,VALID,85.0577,VALID,0.112112,VALID,24.2378,VALID,287,VALID,0.600391,
2014-03-12, 03:06:05,VALID,1009.78,VALID,0,VALID,85.2864,VALID,0.112112,VALID,24.2573,VALID,288,VALID,0.358984,
2014-03-12, 03:07:05,VALID,1009.79,VALID,0,VALID,85.1263,VALID,0.112112,VALID,24.2573,VALID,288,VALID,0.0644531,
2014-03-12, 03:08:05,VALID,1009.81,VALID,0,VALID,85.2635,VALID,0.112112,VALID,24.2768,VALID,289,VALID,0.0410156,
2014-03-12, 03:09:05,VALID,1009.8,VALID,0,VALID,85.111,VALID,0.112112,VALID,24.2768,VALID,288,VALID,0.295703,
2014-03-12, 03:10:05,VALID,1009.83,VALID,0,VALID,85.0424,VALID,0.112112,VALID,24.2768,VALID,288,VALID,0.307031,
2014-03-12, 03:11:05,VALID,1009.81,VALID,0,VALID,85.0653,VALID,0.112112,VALID,24.2768,VALID,288,VALID,0.512109,
2014-03-12, 03:12:05,VALID,1009.84,VALID,0,VALID,85.4389,VALID,0,VALID,24.2786,VALID,289,VALID,0.319922,
2014-03-12, 03:13:05,VALID,1009.84,VALID,0,VALID,85.561,VALID,0,VALID,24.2805,VALID,288,VALID,0.292969,
2014-03-12, 03:14:05,VALID,1009.86,VALID,0,VALID,85.5381,VALID,0,VALID,24.2396,VALID,287,VALID,0.383984,
2014-03-12, 03:15:05,VALID,1009.87,VALID,0,VALID,85.6906,VALID,0,VALID,24.2202,VALID,288,VALID,0.59375,
2014-03-12, 03:16:05,VALID,1009.91,VALID,0,VALID,85.9575,VALID,0,VALID,24.2202,VALID,287,VALID,0.564453,
2014-03-12, 03:17:05,VALID,1009.92,VALID,0,VALID,86.1024,VALID,0,VALID,24.2202,VALID,289,VALID,0.392188,
2014-03-12, 03:18:05,VALID,1009.93,VALID,0,VALID,86.2549,VALID,0,VALID,24.2202,VALID,287,VALID,0.433203,
2014-03-12, 03:19:05,VALID,1009.91,VALID,0,VALID,85.7592,VALID,0,VALID,24.1812,VALID,30,VALID,0.841406,
2014-03-12, 03:20:05,VALID,1009.97,VALID,0,VALID,85.7821,VALID,0,VALID,24.1422,VALID,31,VALID,0.746094,
2014-03-12, 03:21:05,VALID,1009.96,VALID,0,VALID,86.0719,VALID,0,VALID,24.1227,VALID,31,VALID,0.201562,
2014-03-12, 03:22:05,VALID,1009.97,VALID,0,VALID,86.1634,VALID,0,VALID,24.1032,VALID,31,VALID,0.398438,
2014-03-12, 03:23:05,VALID,1009.98,VALID,0,VALID,86.2701,VALID,0,VALID,24.0837,VALID,30,VALID,0.254297,
2014-03-12, 03:24:05,VALID,1009.96,VALID,0,VALID,86.4532,VALID,0,VALID,24.0643,VALID,30,VALID,0.669141,
2014-03-12, 03:25:05,VALID,1009.96,VALID,0,VALID,86.5218,VALID,0,VALID,24.0448,VALID,31,VALID,0.498437,
2014-03-12, 03:26:05,VALID,1009.98,VALID,0,VALID,86.7658,VALID,0,VALID,24.0253,VALID,30,VALID,0.414063,
2014-03-12, 03:27:05,VALID,1009.96,VALID,0,VALID,86.926,VALID,0,VALID,24.0058,VALID,30,VALID,0.232031,
2014-03-12, 03:28:05,VALID,1009.99,VALID,0,VALID,87.0098,VALID,0,VALID,24.0058,VALID,30,VALID,0.330859,
2014-03-12, 03:29:05,VALID,1009.99,VALID,0,VALID,87.1471,VALID,0,VALID,23.9863,VALID,31,VALID,0.276172,
2014-03-12, 03:30:05,VALID,1010.03,VALID,0,VALID,87.2157,VALID,0,VALID,23.9668,VALID,30,VALID,0.253125,
2014-03-12, 03:31:05,VALID,1010.05,VALID,0,VALID,87.5436,VALID,0,VALID,23.9668,VALID,31,VALID,0,
2014-03-12, 03:32:05,VALID,1010.06,VALID,0,VALID,87.7343,VALID,0,VALID,23.9668,VALID,31,VALID,0,
2014-03-12, 03:33:05,VALID,1010.07,VALID,0,VALID,88.0088,VALID,0,VALID,23.9881,VALID,31,VALID,0,
2014-03-12, 03:34:05,VALID,1010.07,VALID,0,VALID,88.047,VALID,0,VALID,23.9668,VALID,31,VALID,0,
2014-03-12, 03:35:05,VALID,1010.1,VALID,0,VALID,87.9783,VALID,0,VALID,23.9473,VALID,30,VALID,0.0945313,
2014-03-12, 03:36:05,VALID,1010.08,VALID,0,VALID,88.1308,VALID,0,VALID,23.9473,VALID,31,VALID,0,
2014-03-12, 03:37:05,VALID,1010.08,VALID,0,VALID,87.9631,VALID,0,VALID,23.9473,VALID,30,VALID,0.187109,
2014-03-12, 03:38:05,VALID,1010.12,VALID,0,VALID,88.0164,VALID,0,VALID,23.9278,VALID,31,VALID,0.124219,
2014-03-12, 03:39:05,VALID,1010.1,VALID,0,VALID,88.0851,VALID,0,VALID,23.9473,VALID,31,VALID,0.0128906,
2014-03-12, 03:40:05,VALID,1010.14,VALID,0,VALID,88.1156,VALID,0,VALID,23.9473,VALID,30,VALID,0,
2014-03-12, 03:41:05,VALID,1010.15,VALID,0,VALID,88.3444,VALID,0,VALID,23.9473,VALID,31,VALID,0,
2014-03-12, 03:42:05,VALID,1010.13,VALID,0,VALID,88.169,VALID,0,VALID,23.9473,VALID,31,VALID,0,
2014-03-12, 03:43:05,VALID,1010.17,VALID,0,VALID,88.0698,VALID,0,VALID,23.9473,VALID,30,VALID,0,
2014-03-12, 03:44:05,VALID,1010.16,VALID,0,VALID,88.108,VALID,0,VALID,23.9473,VALID,30,VALID,0,
2014-03-12, 03:45:05,VALID,1010.18,VALID,0,VALID,88.3139,VALID,0,VALID,23.9473,VALID,31,VALID,0,
2014-03-12, 03:46:05,VALID,1010.19,VALID,0,VALID,88.3215,VALID,0,VALID,23.9668,VALID,30,VALID,0,